[[{"header":{"parameterUnit":"m.s-1","parameterCategory":1,"la1":30.2991,"la2":30.254,"lo1":-89.0895,"lo2":-89.0444,"dy":0.0017,"dx":0.0017,"nx":28,"ny":28,"refTime":"2023-08-30T03:00:00:Z","depth":0,"parameterNumber":2,"parameterNumberName":"U-component_of_WINDS"},"data":[0,0,0,0,0,0,0,0,0,0,0,0,0,0,0,0,0,0,0,0,0,0,0,0,0,0,0,0,0,0,0,0,0,0,0,0,0,0,0,0,0,0,0,0,0,0,0,0,0,0,0,0,0,0,0,0,0,0,-0.3478,-0.3478,0,-0.3425,-0.3424,-0.3424,-0.3345,-0.3343,-0.3342,-0.3341,-0.329,-0.329,-0.329,0,0,0,0,0,0,0,0,0,0,0,0,0,-0.3515,-0.3515,-0.3478,-0.3478,-0.3477,-0.3425,-0.3424,-0.3424,-0.3345,-0.3343,-0.3342,-0.334,-0.329,-0.329,-0.329,0,0,0,0,0,0,0,0,0,0,0,0,0,-0.3485,-0.3515,-0.3478,-0.3431,-0.3427,-0.3425,-0.3424,-0.3423,-0.3345,-0.3343,-0.3341,-0.3339,-0.329,-0.329,-0.329,-0.3331,0,0,-0.329,-0.3289,0,0,0,0,0,0,0,0,-0.3486,-0.3483,-0.3439,-0.3435,-0.3429,-0.3389,-0.3419,-0.3393,-0.3346,-0.3376,-0.3341,-0.3338,-0.3325,-0.3322,-0.3317,-0.3329,-0.3327,-0.329,-0.3289,-0.3289,-0.3289,0,0,0,0,0,0,0,-0.3489,-0.3485,-0.3457,-0.3439,-0.3433,-0.3414,-0.3407,-0.3413,-0.3363,-0.3374,-0.3368,-0.3362,-0.3322,-0.3317,-0.3315,-0.3326,-0.329,-0.3289,-0.3289,-0.3289,-0.3369,-0.3372,0,0,0,0,0,0,-0.3497,-0.3487,-0.3459,-0.3456,-0.3453,-0.3415,-0.3408,-0.3404,-0.3363,-0.3354,-0.3364,-0.3359,-0.3318,-0.3315,-0.3313,-0.3359,-0.3289,-0.3289,-0.3289,-0.3367,-0.337,-0.3372,0,0,0,0,0,0,-0.3498,-0.3495,-0.3461,-0.347,-0.3464,-0.3417,-0.3414,-0.3404,-0.3399,-0.3356,-0.3347,-0.3368,-0.3316,-0.3313,-0.3327,-0.3356,-0.3289,-0.3289,-0.3365,-0.3368,-0.3371,-0.3451,0,0,0,0,0,0,-0.35,-0.3496,-0.3511,-0.3471,-0.3464,-0.3476,-0.3415,-0.3405,-0.3399,-0.3391,-0.3357,-0.3349,-0.3314,-0.3327,-0.3327,-0.3355,-0.3289,-0.3362,-0.3366,-0.337,-0.3446,-0.3457,-0.3466,0,0,0,0,0,-0.3501,-0.3536,-0.3512,-0.3509,-0.3481,-0.3477,-0.3474,-0.3432,-0.3401,-0.3416,-0.3388,-0.335,-0.3352,-0.333,-0.3328,-0.3356,-0.336,-0.3365,-0.337,-0.3441,-0.3455,-0.3466,0,0,0,0,0,0,-0.3583,-0.353,-0.3503,-0.3525,-0.3506,-0.3464,-0.3481,-0.3447,-0.3437,-0.3431,-0.338,-0.3373,-0.3394,-0.3376,-0.3352,-0.3394,-0.335,-0.3355,-0.3405,-0.3418,-0.3428,-0.3432,-0.3289,0,0,0,0,0,-0.3603,-0.3603,-0.3558,-0.3582,-0.3574,-0.353,-0.3526,-0.3496,-0.3474,-0.3466,-0.3439,-0.3421,-0.3417,-0.3416,-0.3411,-0.3442,-0.3434,-0.3461,-0.3471,-0.348,-0.3485,-0.3501,-0.3513,-0.3388,-0.3388,-0.3388,0,0,-0.3645,-0.3617,-0.362,-0.3598,-0.3579,-0.3582,-0.3523,-0.3529,-0.353,-0.3467,-0.3479,-0.3458,-0.3435,-0.3458,-0.3467,-0.3444,-0.3517,-0.3486,-0.3493,-0.3494,-0.3507,-0.3519,-0.353,-0.3392,-0.3391,-0.3391,0,0,-0.3724,-0.3702,-0.372,-0.3703,-0.3675,-0.3645,-0.3649,-0.3612,-0.3596,-0.3606,-0.3559,-0.356,-0.3555,-0.354,-0.3532,-0.3605,-0.357,-0.3604,-0.3659,-0.3675,-0.3685,-0.3693,-0.372,-0.373,-0.361,-0.361,-0.361,0,-0.3781,-0.3782,-0.3734,-0.3742,-0.3734,-0.3676,-0.3694,-0.368,-0.3652,-0.3649,-0.3623,-0.3615,-0.3595,-0.3614,-0.3632,-0.3627,-0.3631,-0.3609,-0.3687,-0.3695,-0.3702,-0.3727,-0.3737,-0.3614,-0.3614,-0.3613,-0.3613,0,-0.3854,-0.3855,-0.3873,-0.3847,-0.384,-0.3854,-0.3809,-0.3809,-0.3778,-0.3752,-0.3763,-0.3737,-0.3725,-0.3727,-0.3698,-0.3742,-0.3729,-0.3696,-0.3651,-0.3719,-0.3742,-0.3751,-0.3621,-0.3619,-0.3618,-0.3617,0,0,-0.3983,-0.3929,-0.3937,-0.3924,-0.3889,-0.389,-0.3901,-0.3888,-0.3889,-0.3872,-0.3881,-0.3877,-0.3846,-0.3837,-0.3805,-0.3819,-0.388,-0.3784,-0.3783,-0.3804,-0.3928,-0.3955,-0.3966,-0.3856,-0.3857,-0.3859,-0.3931,0,-0.4056,-0.4071,-0.4028,-0.4054,-0.4055,-0.3999,-0.4009,-0.3989,-0.3964,-0.3962,-0.3935,-0.3934,-0.3892,-0.3886,-0.3898,-0.387,-0.3904,-0.3864,-0.3865,-0.3866,-0.3874,-0.3978,-0.4006,-0.4075,-0.3939,-0.3941,-0.3942,0,-0.4144,-0.413,-0.4156,-0.4118,-0.4117,-0.4127,-0.4111,-0.411,-0.4086,-0.4067,-0.4057,-0.4019,-0.4029,-0.3985,-0.3997,-0.3971,-0.3969,-0.3955,-0.3957,-0.3957,-0.3909,-0.3982,-0.4096,-0.4107,-0.3955,-0.3954,-0.3953,0,-0.4237,-0.4225,-0.4239,-0.4229,-0.4186,-0.4194,-0.4177,-0.4151,-0.4146,-0.4133,-0.4129,-0.4118,-0.4112,-0.4105,-0.4066,-0.4037,-0.4084,-0.4037,-0.407,-0.4071,-0.4083,-0.4084,-0.42,-0.408,-0.408,-0.4079,-0.4079,0,-0.4324,-0.4342,-0.428,-0.4289,-0.4308,-0.4259,-0.428,-0.4257,-0.4234,-0.4238,-0.4189,-0.4194,-0.4142,-0.4142,-0.4111,-0.4127,-0.4125,-0.4111,-0.4103,-0.4116,-0.4118,-0.4115,-0.411,-0.4082,-0.4082,-0.4081,-0.4081,0,-0.4432,-0.4391,-0.4403,-0.436,-0.435,-0.4367,-0.4331,-0.4338,-0.4309,-0.4315,-0.4314,-0.4269,-0.4267,-0.4226,-0.4215,-0.4195,-0.4224,-0.4206,-0.4232,-0.4226,-0.4262,-0.426,-0.4383,-0.4397,-0.4266,-0.4267,-0.4268,0,-0.4491,-0.4504,-0.4462,-0.4461,-0.4446,-0.4444,-0.4438,-0.439,-0.4387,-0.436,-0.4371,-0.4364,-0.4355,-0.4354,-0.4322,-0.4313,-0.4296,-0.4339,-0.4294,-0.4307,-0.4298,-0.4298,-0.43,-0.4349,-0.4351,-0.4352,-0.4353,0,-0.46,-0.4579,-0.4572,-0.4558,-0.4552,-0.4539,-0.4523,-0.4525,-0.4472,-0.447,-0.4466,-0.446,-0.4448,-0.4442,-0.4427,-0.441,-0.4374,-0.4367,-0.4375,-0.4389,-0.4404,-0.4398,-0.4259,-0.4365,-0.4364,-0.4363,-0.4362,-0.4362,-0.4686,-0.4695,-0.4667,-0.4661,-0.4643,-0.4629,-0.4634,-0.4605,-0.46,-0.4586,-0.4558,-0.4559,-0.4535,-0.4511,-0.4497,-0.4498,-0.4476,-0.4486,-0.4489,-0.4493,-0.4501,-0.4403,-0.4495,-0.4495,-0.4494,-0.4494,-0.4494,0,-0.4794,-0.4773,-0.4767,-0.4746,-0.4741,-0.4705,-0.4685,-0.4684,-0.4685,-0.4665,-0.4657,-0.4653,-0.4647,-0.4614,-0.4604,-0.4611,-0.4594,-0.461,-0.461,-0.4607,-0.452,-0.4516,-0.4624,-0.4624,-0.4624,-0.4624,-0.4624,-0.4624,-0.4849,-0.4862,-0.4838,-0.4842,-0.4821,-0.482,-0.4812,-0.4799,-0.4783,-0.478,-0.4774,-0.4752,-0.4727,-0.4715,-0.4708,-0.4698,-0.4698,-0.472,-0.4706,-0.4626,-0.4613,-0.4601,-0.4596,-0.472,-0.472,-0.4792,-0.4793,-0.4793]},{"header":{"parameterUnit":"m.s-1","parameterCategory":1,"la1":30.2991,"la2":30.254,"lo1":-89.0895,"lo2":-89.0444,"dy":0.0017,"dx":0.0017,"nx":28,"ny":28,"refTime":"2023-08-30T03:00:00:Z","depth":0,"parameterNumber":3,"parameterNumberName":"V-component_of_WINDS"},"data":[0,0,0,0,0,0,0,0,0,0,0,0,0,0,0,0,0,0,0,0,0,0,0,0,0,0,0,0,0,0,0,0,0,0,0,0,0,0,0,0,0,0,0,0,0,0,0,0,0,0,0,0,0,0,0,0,0,0,-1.2931,-1.2931,0,-1.2878,-1.2878,-1.2877,-1.2849,-1.2849,-1.2849,-1.2849,-1.2789,-1.2788,-1.2786,0,0,0,0,0,0,0,0,0,0,0,0,0,-1.3002,-1.3001,-1.2931,-1.2931,-1.293,-1.2878,-1.2878,-1.2877,-1.2849,-1.2849,-1.2849,-1.2849,-1.279,-1.2788,-1.2786,0,0,0,0,0,0,0,0,0,0,0,0,0,-1.2962,-1.3,-1.2931,-1.291,-1.2907,-1.2879,-1.2878,-1.2877,-1.2849,-1.2849,-1.2849,-1.2849,-1.279,-1.2788,-1.2786,-1.2773,0,0,-1.2779,-1.2778,0,0,0,0,0,0,0,0,-1.2965,-1.296,-1.2914,-1.2911,-1.2908,-1.287,-1.2881,-1.2842,-1.2849,-1.2871,-1.2849,-1.2849,-1.2816,-1.2811,-1.2801,-1.277,-1.2767,-1.2778,-1.2777,-1.2776,-1.2775,0,0,0,0,0,0,0,-1.2967,-1.2962,-1.291,-1.2913,-1.291,-1.2901,-1.2895,-1.2873,-1.2844,-1.2869,-1.2867,-1.2861,-1.2814,-1.2804,-1.28,-1.2766,-1.2778,-1.2776,-1.2775,-1.2774,-1.272,-1.272,0,0,0,0,0,0,-1.2974,-1.2964,-1.2912,-1.2909,-1.2937,-1.29,-1.2893,-1.2882,-1.2844,-1.2839,-1.2861,-1.286,-1.2808,-1.2803,-1.2798,-1.2779,-1.2776,-1.2774,-1.2772,-1.272,-1.272,-1.272,0,0,0,0,0,0,-1.2976,-1.297,-1.2914,-1.2936,-1.2928,-1.2899,-1.2887,-1.2881,-1.2871,-1.2839,-1.2833,-1.2856,-1.2807,-1.2801,-1.2779,-1.2777,-1.2773,-1.2771,-1.272,-1.272,-1.272,-1.2743,0,0,0,0,0,0,-1.2978,-1.2971,-1.2967,-1.2936,-1.2927,-1.2898,-1.2886,-1.288,-1.2868,-1.2866,-1.2832,-1.2827,-1.2807,-1.2783,-1.2777,-1.2774,-1.2769,-1.272,-1.272,-1.272,-1.2743,-1.2744,-1.2745,0,0,0,0,0,-1.2981,-1.2975,-1.2967,-1.2961,-1.2922,-1.2898,-1.2893,-1.2872,-1.2868,-1.2863,-1.2842,-1.2828,-1.2778,-1.2781,-1.2774,-1.277,-1.272,-1.272,-1.272,-1.2742,-1.2744,-1.2745,0,0,0,0,0,0,-1.3004,-1.297,-1.2961,-1.2945,-1.2925,-1.2894,-1.2887,-1.2874,-1.2854,-1.2852,-1.2825,-1.2818,-1.2799,-1.2782,-1.2786,-1.2755,-1.2748,-1.2746,-1.2767,-1.2768,-1.2769,-1.2774,-1.2767,0,0,0,0,0,-1.3008,-1.2994,-1.2964,-1.2952,-1.2943,-1.2917,-1.2905,-1.2891,-1.2868,-1.2859,-1.2837,-1.2813,-1.2792,-1.2779,-1.2758,-1.274,-1.2731,-1.2733,-1.2735,-1.2736,-1.2735,-1.2723,-1.2723,-1.272,-1.272,-1.272,0,0,-1.3015,-1.2994,-1.2986,-1.2956,-1.2939,-1.2923,-1.291,-1.2893,-1.288,-1.2856,-1.2835,-1.2817,-1.2789,-1.2769,-1.2759,-1.2755,-1.2734,-1.2736,-1.2737,-1.2735,-1.2723,-1.2723,-1.2724,-1.272,-1.272,-1.272,0,0,-1.3019,-1.3003,-1.2991,-1.2974,-1.2949,-1.2931,-1.2929,-1.2899,-1.2887,-1.2865,-1.2847,-1.283,-1.2794,-1.2775,-1.2761,-1.2757,-1.2743,-1.2751,-1.2758,-1.2746,-1.2747,-1.2747,-1.2745,-1.2745,-1.275,-1.275,-1.275,0,-1.303,-1.3007,-1.2986,-1.2971,-1.2958,-1.2937,-1.2924,-1.2908,-1.2876,-1.2866,-1.2862,-1.2817,-1.2797,-1.2772,-1.2771,-1.276,-1.2755,-1.2755,-1.2749,-1.2749,-1.2748,-1.2746,-1.2745,-1.2751,-1.2751,-1.2751,-1.2751,0,-1.3022,-1.3006,-1.2999,-1.2971,-1.2957,-1.2943,-1.2918,-1.2906,-1.2892,-1.2875,-1.2852,-1.2827,-1.28,-1.2793,-1.2779,-1.2765,-1.2763,-1.2754,-1.2747,-1.275,-1.2748,-1.2747,-1.2753,-1.2752,-1.2752,-1.2752,0,0,-1.304,-1.3001,-1.2999,-1.2985,-1.2955,-1.2941,-1.2925,-1.2901,-1.2891,-1.2869,-1.2854,-1.2824,-1.2816,-1.2799,-1.2783,-1.2773,-1.277,-1.2764,-1.2763,-1.2766,-1.2753,-1.276,-1.2759,-1.2761,-1.2761,-1.276,-1.2755,0,-1.304,-1.3013,-1.2994,-1.2973,-1.2957,-1.2936,-1.2922,-1.2901,-1.2884,-1.2866,-1.2846,-1.2826,-1.2816,-1.2806,-1.2795,-1.2773,-1.2767,-1.2773,-1.2745,-1.2744,-1.2753,-1.2758,-1.2766,-1.2762,-1.2754,-1.2754,-1.2753,0,-1.3037,-1.3018,-1.2996,-1.2967,-1.296,-1.2948,-1.2924,-1.2908,-1.2882,-1.287,-1.2852,-1.2835,-1.2815,-1.2809,-1.2781,-1.2785,-1.2772,-1.2759,-1.2759,-1.2755,-1.2749,-1.2755,-1.276,-1.276,-1.2752,-1.2752,-1.2752,0,-1.3052,-1.3021,-1.3004,-1.2993,-1.2959,-1.2951,-1.2935,-1.291,-1.2897,-1.2874,-1.2865,-1.284,-1.2826,-1.2806,-1.2782,-1.278,-1.2756,-1.2748,-1.2744,-1.2745,-1.274,-1.2741,-1.2744,-1.2732,-1.2732,-1.2732,-1.2732,0,-1.3054,-1.3042,-1.301,-1.3,-1.2985,-1.2961,-1.2946,-1.2929,-1.2907,-1.2891,-1.287,-1.2855,-1.2825,-1.2806,-1.2786,-1.2765,-1.2759,-1.2747,-1.2742,-1.2749,-1.2751,-1.274,-1.274,-1.2732,-1.2732,-1.2732,-1.2732,0,-1.3069,-1.3048,-1.3028,-1.2997,-1.2989,-1.2979,-1.2952,-1.294,-1.2921,-1.2902,-1.2896,-1.2866,-1.2842,-1.2816,-1.2783,-1.277,-1.275,-1.2743,-1.2759,-1.2757,-1.2754,-1.2755,-1.275,-1.2748,-1.2738,-1.2738,-1.2739,0,-1.3072,-1.3062,-1.3031,-1.302,-1.3006,-1.2988,-1.2975,-1.295,-1.2936,-1.2906,-1.2898,-1.2873,-1.2852,-1.2815,-1.2789,-1.2763,-1.2755,-1.2755,-1.2751,-1.2758,-1.2755,-1.2756,-1.2754,-1.2757,-1.2757,-1.2757,-1.2757,0,-1.308,-1.3069,-1.3052,-1.3029,-1.3014,-1.2995,-1.2975,-1.2966,-1.2937,-1.2922,-1.2899,-1.2883,-1.285,-1.2825,-1.2796,-1.2778,-1.2762,-1.2759,-1.2757,-1.2764,-1.2774,-1.2768,-1.2763,-1.2759,-1.2759,-1.2759,-1.2759,-1.2759,-1.3088,-1.3079,-1.3055,-1.3035,-1.3018,-1.3,-1.2987,-1.2967,-1.2948,-1.2921,-1.2906,-1.2883,-1.2856,-1.2816,-1.2798,-1.2778,-1.2773,-1.277,-1.2769,-1.2769,-1.277,-1.2777,-1.2773,-1.2773,-1.2773,-1.2772,-1.2772,0,-1.3095,-1.3079,-1.3061,-1.3034,-1.3018,-1.3006,-1.2983,-1.297,-1.295,-1.2928,-1.2908,-1.288,-1.2855,-1.2828,-1.2801,-1.279,-1.2782,-1.2783,-1.2784,-1.278,-1.2776,-1.2781,-1.279,-1.279,-1.279,-1.279,-1.279,-1.279,-1.3096,-1.3079,-1.3066,-1.3039,-1.3022,-1.3,-1.2988,-1.297,-1.2952,-1.2923,-1.2903,-1.2886,-1.286,-1.2831,-1.2807,-1.28,-1.279,-1.2794,-1.2784,-1.2782,-1.278,-1.2779,-1.2783,-1.2793,-1.2793,-1.2789,-1.2789,-1.2789]}]]